Weather in Obzherikha

Russia / Ivanovo Oblast     57°10′47″N   42°57′43″E
temp.,
°C
wind,
m/s
gust,
m/s
humid.,
%
clouds,
%
prec.,
mm/h
press.,
hPa
HPBL,
m
25 february, thu
thu2500:00−17s61094100 0.1 1029350
03:00−16s61095100 0.5 1026438
06:00−16s81295100 1.7 1020469
09:00−15s71195100 4.1 1016538
12:00−13sse6994100 2.1 1014454
15:00−11sse4692100 2.5 1012359
18:00−12se339687 0.3 101255
21:00−12se239691 0.4 101263
26 february, fri
fri2600:00−12ese3496100 0.2 101289
03:00−13se3496100 0.4 101290
06:00−13se4695100 0.3 1010196
09:00−11se5795100 0.8 1009240
12:00−9se61095100 1.5 1005310
15:00−7sse81295100 5.1 1001326
18:00−4sse5797100 6.3 997169
21:00+1w5119197 7.1 996271
27 february, sat
sat2700:000w599898 0.4 994338
03:000wsw479999 1.4 994245
06:000wnw4699100 1.5 994240
09:00−8nne6895100 2.4 996273
12:00−10nne7993100 1.0 999465
15:00−10nne71091100 1.4 1002596
18:00−12nne7119298 0.2 1005451
21:00−13n6109298 0.3 1008307
28 february, sun
sun2800:00−17n599576 0.0 1010149
03:00−19n579539 0.0 1013128
06:00−20nnw46960 0.0 101490
09:00−19nnw47940 0.0 1016191
12:00−15nnw469124 0.0 1016336
15:00−11nnw468953 0.0 1017310
18:00−14nnw459499 0.0 101847
21:00−16nnw449672 0.0 102138
1 march, mon
mon100:00−16nnw34950 0.0 102221
03:00−17nnw23960 0.0 102420
06:00−17nnw229737 0.0 102520
09:00−14wsw119664 0.0 102534
12:00−8sw249190 0.0 1024256
15:00−4sw479094 0.0 1022256
18:00−4wsw51094100 0.1 1020300
21:00−2wsw61196100 0.4 1016387